This demonstration page uses our WeatherBlox Daily Observations layout. Learn more.

Left ArrowRight Arrow

Hourly Observations for October 20, 2022

Temp ( °F °C ) Dew Point ( °F °C ) Humidity (%) Winds ( mph kmh ) Pressure ( in mb ) Visibility ( mi km ) Precip ( " mm )
12:15 am 00:15 Clear 39 4 36 2 87 87 Calm 30.04 1017 10 16 0.00 0.00
12:35 am 00:35 Clear 37 3 36 2 93 93 Calm 30.04 1017 10 16 0.00 0.00
12:55 am 00:55 Clear 37 3 36 2 93 93 SSW 5 7 30.05 1017 10 16 0.00 0.00
1:15 am 01:15 Clear 36 2 36 2 100 100 W 3 6 30.04 1017 10 16 0.00 0.00
1:35 am 01:35 Clear 37 3 36 2 93 93 Calm 30.05 1017 10 16 0.00 0.00
1:55 am 01:55 Clear 37 3 36 2 93 93 Calm 30.04 1017 10 16 0.00 0.00
2:15 am 02:15 Clear 37 3 36 2 93 93 SSW 3 6 30.05 1017 10 16 0.00 0.00
2:35 am 02:35 Clear 37 3 36 2 93 93 SSW 3 6 30.04 1017 10 16 0.00 0.00
2:55 am 02:55 Clear 36 2 36 2 100 100 SW 3 6 30.04 1017 10 16 0.00 0.00
3:15 am 03:15 Clear 34 1 34 1 100 100 WNW 5 7 30.03 1017 10 16 0.00 0.00
3:35 am 03:35 Clear 37 3 36 2 93 93 S 3 6 30.04 1017 10 16 0.00 0.00
3:55 am 03:55 Clear 36 2 34 1 93 93 SSW 5 7 30.04 1017 10 16 0.00 0.00
4:15 am 04:15 undefined 36 2 34 1 93 93 SSW 6 9 30.04 1017 N/A 0.00 0.00
4:35 am 04:35 Clear 36 2 34 1 93 93 SSW 6 9 30.04 1017 10 16 0.00 0.00
4:55 am 04:55 Clear 34 1 34 1 100 100 SSW 3 6 30.04 1017 10 16 0.00 0.00
5:15 am 05:15 Clear 34 1 34 1 100 100 Calm 30.04 1017 10 16 0.00 0.00
5:35 am 05:35 Clear 34 1 34 1 100 100 SW 3 6 30.04 1017 10 16 0.00 0.00
5:55 am 05:55 Clear 34 1 34 1 100 100 Calm 30.04 1017 10 16 0.00 0.00
6:15 am 06:15 Clear 34 1 34 1 100 100 SW 5 7 30.05 1018 10 16 0.00 0.00
6:35 am 06:35 Clear 34 1 34 1 100 100 Calm 30.05 1018 10 16 0.00 0.00
6:55 am 06:55 Clear 34 1 34 1 100 100 SW 5 7 30.05 1018 10 16 0.00 0.00
7:15 am 07:15 Clear 32 0 32 0 100 100 SSW 6 9 30.06 1018 10 16 0.00 0.00
7:35 am 07:35 Sunny 32 0 32 0 100 100 SSW 7 11 30.06 1018 10 16 0.00 0.00
7:55 am 07:55 Sunny 34 1 34 1 100 100 SW 5 7 30.06 1018 10 16 0.00 0.00
8:15 am 08:15 Sunny 34 1 34 1 100 100 SSW 5 7 30.07 1018 10 16 0.00 0.00
8:35 am 08:35 Sunny 36 2 34 1 93 93 SW 3 6 30.07 1018 10 16 0.00 0.00
8:55 am 08:55 Sunny 37 3 36 2 93 93 SSW 3 6 30.08 1018 10 16 0.00 0.00
9:15 am 09:15 Sunny 41 5 36 2 81 81 Calm 30.07 1018 10 16 0.00 0.00
9:35 am 09:35 Sunny 45 7 37 3 76 76 SSW 6 9 30.07 1018 10 16 0.00 0.00
9:55 am 09:55 Sunny 46 8 37 3 71 71 S 6 9 30.07 1018 10 16 0.00 0.00
10:15 am 10:15 Sunny 50 10 36 2 57 57 S 8 13 30.07 1018 10 16 0.00 0.00
10:35 am 10:35 Sunny 52 11 34 1 50 50 S 9 15 30.05 1018 10 16 0.00 0.00
10:55 am 10:55 Sunny 52 11 32 0 47 47 S 10 17 30.05 1018 10 16 0.00 0.00
11:15 am 11:15 Sunny 54 12 32 0 44 44 S 12 19 30.05 1018 10 16 0.00 0.00
11:35 am 11:35 Sunny 55 13 32 0 41 41 SSW 13 20 30.04 1017 10 16 0.00 0.00
11:55 am 11:55 Sunny 55 13 32 0 41 41 S 12 19 30.04 1017 10 16 0.00 0.00
12:15 pm 12:15 Sunny 55 13 32 0 41 41 S 12 19 30.03 1017 10 16 0.00 0.00
12:35 pm 12:35 Sunny 57 14 32 0 38 38 S 15 24 30.02 1017 10 16 0.00 0.00
12:55 pm 12:55 Sunny 57 14 32 0 38 38 SSW 13 20 30.02 1017 10 16 0.00 0.00
1:15 pm 13:15 Sunny 59 15 30 -1 33 33 S 9 15 30.00 1016 10 16 0.00 0.00
1:35 pm 13:35 Sunny 59 15 32 0 36 36 S 8 13 29.99 1016 10 16 0.00 0.00
1:55 pm 13:55 Sunny 59 15 30 -1 33 33 S 9 15 29.98 1015 10 16 0.00 0.00
2:15 pm 14:15 Sunny 61 16 32 0 34 34 SW 9 15 29.97 1015 10 16 0.00 0.00
2:35 pm 14:35 Sunny 61 16 32 0 34 34 S 10 17 29.96 1014 10 16 0.00 0.00
2:55 pm 14:55 Sunny 61 16 32 0 34 34 WSW 8 13 29.95 1014 10 16 0.00 0.00
3:15 pm 15:15 Sunny 61 16 30 -1 31 31 S 7 11 29.94 1014 10 16 0.00 0.00
3:35 pm 15:35 Sunny 61 16 32 0 34 34 S 14 22 29.94 1014 10 16 0.00 0.00
3:55 pm 15:55 Sunny 61 16 30 -1 31 31 S 14 22 29.93 1013 10 16 0.00 0.00
4:15 pm 16:15 Sunny 61 16 30 -1 31 31 SSW 12 19 29.93 1013 10 16 0.00 0.00
4:35 pm 16:35 Sunny 61 16 32 0 34 34 SSW 15 24 29.93 1013 10 16 0.00 0.00
4:55 pm 16:55 Sunny 61 16 30 -1 31 31 SSW 12 19 29.93 1013 10 16 0.00 0.00
5:15 pm 17:15 Sunny 61 16 32 0 34 34 SSW 14 22 29.93 1013 10 16 0.00 0.00
5:35 pm 17:35 Sunny 59 15 32 0 36 36 SSW 10 17 29.93 1013 10 16 0.00 0.00
5:55 pm 17:55 Sunny 59 15 32 0 36 36 SSW 8 13 29.93 1013 10 16 0.00 0.00
6:15 pm 18:15 Sunny 57 14 32 0 38 38 S 6 9 29.93 1014 10 16 0.00 0.00
6:35 pm 18:35 Clear 55 13 32 0 41 41 S 6 9 29.94 1014 10 16 0.00 0.00
6:55 pm 18:55 Clear 55 13 32 0 41 41 S 6 9 29.95 1014 10 16 0.00 0.00
7:15 pm 19:15 Clear 54 12 32 0 44 44 S 5 7 29.95 1014 10 16 0.00 0.00
7:35 pm 19:35 Clear 54 12 32 0 44 44 S 3 6 29.96 1015 10 16 0.00 0.00
7:55 pm 19:55 Clear 50 10 34 1 53 53 S 5 7 29.96 1015 10 16 0.00 0.00
9:15 pm 21:15 Clear 43 6 36 2 75 75 SW 3 6 30.00 1016 10 16 0.00 0.00
9:35 pm 21:35 Clear 45 7 34 1 66 66 SW 5 7 30.00 1016 10 16 0.00 0.00
9:55 pm 21:55 Clear 43 6 36 2 75 75 WSW 3 6 30.01 1016 10 16 0.00 0.00
10:15 pm 22:15 Clear 43 6 36 2 75 75 Calm 30.03 1017 10 16 0.00 0.00
10:35 pm 22:35 Clear 43 6 36 2 75 75 WSW 6 9 30.03 1017 10 16 0.00 0.00
10:55 pm 22:55 Partly Cloudy 45 7 34 1 66 66 SW 6 9 30.04 1017 10 16 0.00 0.00
11:15 pm 23:15 Cloudy 43 6 36 2 75 75 WSW 5 7 30.05 1018 10 16 0.00 0.00
11:35 pm 23:35 Cloudy 46 8 36 2 66 66 Calm 30.05 1018 10 16 0.00 0.00
11:55 pm 23:55 Cloudy 46 8 36 2 66 66 Calm 30.06 1018 10 16 0.00 0.00

Powered by AerisWeather